ES'HAIL 2

Last updated on Sun Jan 18 2026 00:02:48 GMT+0000 (Coordinated Universal Time)

1 43700U 18090A 26017.58903629 .00000161 00000+0 00000+0 0 9996 2 43700 0.0166 76.6519 0001894 278.9407 359.2728 1.00274650 26168
UTC large
Height (km)
Speed (km/s)
/
Latitude / Longitude
Inclination (degrees)
Orbital Period (minutes)
Azimuth
Elevation
Range (km)
Doppler Factor

Next 0 passes for location: London (51.5072 / 0.1276)

Sorry there are no passes over London.